Tracking 27126 objects as of 30-Mar-2023
HD Live streaming from Space Station
objects crossing your sky now

STARLINK-4111

Track STARLINK-4111 now!
10-day predictions
STARLINK-4111 is classified as:


NORAD ID: 53159
Int'l Code: 2022-083AD
Perigee: 546.2 km
Apogee: 547.6 km
Inclination: 53.2 °
Period: 95.4 minutes
Semi major axis: 6917 km
RCS: Unknown
Launch date: July 17, 2022
Source: United States (US)
Launch site: AIR FORCE EASTERN TEST RANGE (AFETR)
Your satellite tracking list
Your tracking list is empty




NASA's NSSDC Master Catalog

Two Line Element Set (TLE):
1 53159U 22083AD  23089.56610250  .00006632  00000-0  43442-3 0  9992
2 53159  53.2161 310.5349 0001023 116.6825 243.4271 15.08836399 39684
Source of the keplerian elements: AFSPC